Weather History for KUCP - July, 2013

Change the Weather History Date:

Thursday, July 4, 2013

  Actual Average Record
Temperature  
Mean Temperature 74 °F -  
Max Temperature 82 °F 82 °F 98 °F (1931)
Min Temperature 66 °F 57 °F 41 °F (1927)
Cooling Degree Days 9    
Growing Degree Days 24 (Base 50)    
Moisture  
Dew Point 68 °F    
Average Humidity 85    
Maximum Humidity 100    
Minimum Humidity 58    
Precipitation  
Precipitation 0.00 in - - ()
Sea Level Pressure  
Sea Level Pressure 30.21 in    
Wind  
Wind Speed 2 mph (SW)    
Max Wind Speed 7 mph    
Max Gust Speed -    
Visibility 8 miles    
Events      
Averages and records for this station are not official NWS values.
T = Trace of Precipitation, MM = Missing Value Source: NWS Daily Summary

Daily Weather History Graph

Daily Weather History Graph

Search for Another Location

Airport or City:

Trip Planner

Search our weather history database for the weather conditions in past years. The results will help you decide how hot, cold, wet, or windy it might be!

Date:

Astronomy

Jul. 04, 2013 Rise Set
Actual Time 5:54 AM EDT 8:57 PM EDT
Civil Twilight 5:21 AM EDT 9:30 PM EDT
Nautical Twilight 4:39 AM EDT 10:12 PM EDT
Astronomical Twilight 3:49 AM EDT 11:02 PM EDT
Moon 3:11 AM EDT (7/4) 5:59 PM EDT (7/4)
Length of Visible Light 16h 08m
Length of Day
15h 02m
Waning Crescent, 11% of the Moon is Illuminated
Jul 4
Waning Crescent
Jul 8
New
Jul 15
First Quarter
Jul 22
Full
Jul 29
Last Quarter

Hourly Weather History & Observations

Time (EDT) Temp. Heat Index Dew Point Humidity Pressure Visibility Wind Dir Wind Speed Gust Speed Precip Events Conditions
12:56 AM 66.9 °F - 66.9 °F 100% 30.20 in 10.0 mi Calm Calm - N/A   Clear
1:56 AM 66.9 °F - 66.9 °F 100% 30.20 in 5.0 mi Calm Calm - N/A   Clear
2:23 AM 68.0 °F - 68.0 °F 100% 30.18 in 4.0 mi Calm Calm - N/A   Mostly Cloudy
2:56 AM 68.0 °F - 68.0 °F 100% 30.19 in 5.0 mi Calm Calm - N/A   Scattered Clouds
3:15 AM 66.2 °F - 66.2 °F 100% 30.18 in 4.0 mi Calm Calm - N/A   Mostly Cloudy
3:56 AM 68.9 °F - 68.0 °F 97% 30.20 in 9.0 mi Calm Calm - N/A   Overcast
4:33 AM 68.0 °F - 68.0 °F 100% 30.19 in 2.5 mi Calm Calm - N/A   Scattered Clouds
4:46 AM 68.0 °F - 68.0 °F 100% 30.19 in 4.0 mi Calm Calm - N/A   Partly Cloudy
4:56 AM 68.0 °F - 68.0 °F 100% 30.21 in 7.0 mi Calm Calm - N/A   Partly Cloudy
5:09 AM 69.8 °F - 68.0 °F 94% 30.19 in 9.0 mi Calm Calm - N/A   Mostly Cloudy
5:56 AM 68.9 °F - 68.0 °F 97% 30.22 in 4.0 mi Calm Calm - 0.00 in   Overcast
6:09 AM 69.8 °F - 68.0 °F 94% 30.20 in 9.0 mi Calm Calm - 0.00 in   Mostly Cloudy
6:56 AM 68.9 °F - 68.0 °F 97% 30.23 in 10.0 mi Calm Calm - 0.00 in   Scattered Clouds
7:56 AM 70.0 °F - 68.9 °F 96% 30.25 in 10.0 mi Calm Calm - N/A   Clear
8:56 AM 72.9 °F - 70.0 °F 91% 30.26 in 10.0 mi Calm Calm - N/A   Partly Cloudy
9:21 AM 73.4 °F - 69.8 °F 88% 30.24 in 10.0 mi SSW 5.8 mph - N/A   Mostly Cloudy
9:28 AM 73.4 °F - 69.8 °F 88% 30.24 in 10.0 mi SSW 3.5 mph - N/A   Mostly Cloudy
9:56 AM 73.9 °F - 70.0 °F 87% 30.27 in 10.0 mi South 5.8 mph - N/A   Mostly Cloudy
10:03 AM 73.4 °F - 69.8 °F 88% 30.24 in 10.0 mi Variable 3.5 mph - N/A   Mostly Cloudy
10:39 AM 75.2 °F - 69.8 °F 83% 30.23 in 10.0 mi SSW 6.9 mph - N/A   Mostly Cloudy
10:56 AM 75.2 °F - 69.8 °F 83% 30.23 in 10.0 mi Calm Calm - N/A   Mostly Cloudy
11:17 AM 75.2 °F - 69.8 °F 83% 30.23 in 10.0 mi Variable 6.9 mph - N/A   Mostly Cloudy
11:38 AM 78.8 °F - 69.8 °F 74% 30.22 in 10.0 mi Calm Calm - N/A   Scattered Clouds
11:56 AM 79.0 °F - 70.0 °F 74% 30.25 in 10.0 mi SW 5.8 mph - N/A   Mostly Cloudy
12:32 PM 80.6 °F 83.9 °F 69.8 °F 70% 30.22 in 10.0 mi SSW 5.8 mph - N/A   Scattered Clouds
12:56 PM 79.9 °F - 68.9 °F 69% 30.25 in 10.0 mi Variable 6.9 mph - N/A   Mostly Cloudy
1:56 PM 82.4 °F 84.6 °F 66.2 °F 58% 30.21 in 10.0 mi SSW 5.8 mph - N/A   Mostly Cloudy
2:56 PM 81.9 °F 84.2 °F 66.9 °F 60% 30.22 in 10.0 mi Variable 4.6 mph - N/A   Scattered Clouds
3:56 PM 81.9 °F 84.2 °F 66.9 °F 60% 30.21 in 10.0 mi SW 5.8 mph - N/A   Partly Cloudy
4:56 PM 81.9 °F 84.2 °F 66.9 °F 60% 30.20 in 10.0 mi Variable 4.6 mph - N/A   Partly Cloudy
5:56 PM 82.9 °F 85.8 °F 68.0 °F 60% 30.19 in 10.0 mi Variable 5.8 mph - N/A   Clear
6:56 PM 81.9 °F 84.2 °F 66.9 °F 60% 30.19 in 10.0 mi SW 5.8 mph - N/A   Clear
7:56 PM 81.0 °F 83.3 °F 66.9 °F 62% 30.19 in 10.0 mi WSW 4.6 mph - N/A   Partly Cloudy
8:56 PM 74.8 °F - 66.9 °F 76% 30.19 in 10.0 mi Calm Calm - N/A   Clear
9:56 PM 70.9 °F - 68.9 °F 93% 30.19 in 10.0 mi Calm Calm - 0.00 in   Clear
10:56 PM 70.0 °F - 68.9 °F 96% 30.20 in 10.0 mi Calm Calm - 0.00 in   Partly Cloudy
11:56 PM 68.9 °F - 68.0 °F 97% 30.19 in 3.0 mi Calm Calm - N/A   Clear